Voltar ao catálogo

STARLINK-3264

AtivoComunicaçõesVLEO
NORAD 50198·PAYLOAD·🇺🇸 United States

Lançado Dec 18, 2021 de Vandenberg Space Force Base

Loading…

Próximas Passagens (próximas 24 horas)

TLE

AtualizadoSource: CelesTrak SupGP

Época: Sep 15, 2026, 00:50 UTC

1 50198C 21125AU  26258.03520833  .00066119  00000+0  32383-2 0  2582
2 50198  53.1584 105.1790 0002366 111.1393  34.2608 15.17617542    13

Acompanhe STARLINK-3264 em tempo real com AllMySat

Download on the App Store